Flag for Lithuania Weather past 2 weeks in Kaunas, Lithuania

Now
55 °F

Sprinkles. More clouds than sun.


Feels Like: 53 °F
Forecast: 46 / 53 °F
Wind: 8 mph from West

Location: Kaunas

Current Time: Oct 20, 2014 at 4:22:16 PM

Latest Report: Oct 20, 2014 at 3:50 PM


Visibility: N/A

Pressure: 29.53 "Hg

Humidity: 88%

Dew point: 52 °F

Location of KaunasLocation

Historic Weather in Kaunas — Graph

°F

Kaunas temperature yesterday

Maximum temperature yesterday: 54 °F (at 5:50 PM)
Minimum temperature yesterday: 27 °F (at 12:20 AM)
Average temperature yesterday: 42 °F

Past Weeks' High & Low Weather Summary

 TemperatureHumidityPressure
High70 °F (Oct 10, 2:50 PM)100% (Oct 15, 4:20 AM)30.42 "Hg (Oct 15, 4:20 AM)
Low27 °F (Oct 19, 12:20 AM)42% (Oct 5, 3:50 PM)29.53 "Hg (Oct 20, 1:50 PM)
Average50 °F79%29.99 "Hg
* Reported Oct 5 2:20 PM — Oct 20 2:50 PM, Kaunas, Weather by CustomWeather, © 2014

Note: Actual official high and low records may vary slightly from our data, if they occured in-between our weather recording intervals... More about our weather records

Advertising

Kaunas weather history for previous 24 hours

 ConditionsComfort  
Time TempWeatherWind HumidityBarometerVisibility
2:50 PM
Oct 20
55 °FSprinkles. Cloudy.16 mph88%29.53 "Hg4 mi
2:20 PM55 °FSprinkles. More clouds than sun.15 mph88%29.53 "HgN/A
1:50 PM57 °FSprinkles. Cloudy.13 mph82%29.53 "Hg4 mi
1:20 PM55 °FSprinkles. Broken clouds.12 mph88%29.56 "HgN/A
12:50 PM57 °FSprinkles. More clouds than sun.13 mph82%29.56 "HgN/A
12:20 PM57 °FBroken clouds.15 mph77%29.56 "HgN/A
11:50 AM57 °FOvercast.12 mph77%29.56 "HgN/A
11:20 AM55 °FCloudy.15 mph82%29.56 "HgN/A
10:50 AM57 °FMostly cloudy.15 mph77%29.56 "HgN/A
10:20 AM57 °FBroken clouds.16 mph82%29.56 "HgN/A
9:50 AM55 °FBroken clouds.14 mph88%29.56 "HgN/A
9:20 AM55 °FBroken clouds.15 mph88%29.56 "HgN/A
8:50 AM55 °FOvercast.14 mph88%29.56 "HgN/A
8:20 AM55 °FMostly cloudy.9 mph88%29.56 "HgN/A
7:50 AM55 °FMostly cloudy.8 mph94%29.56 "HgN/A
6:20 AM57 °FOvercast.10 mph88%29.56 "HgN/A
5:50 AM57 °FMostly cloudy.9 mph88%29.56 "HgN/A
5:20 AM57 °FLight rain. Mostly cloudy.9 mph88%29.56 "Hg6 mi
4:50 AM57 °FLight rain. Low clouds.13 mph88%29.56 "Hg5 mi
4:20 AM57 °FLight rain. Low clouds.16 mph88%29.56 "Hg6 mi
3:50 AM57 °FLight rain. Low clouds.15 mph88%29.56 "HgN/A
3:20 AM57 °FLight rain. Overcast.14 mph88%29.56 "HgN/A
2:50 AM55 °FRain. Overcast.12 mph94%29.59 "Hg5 mi
2:20 AM55 °FRain. Mostly cloudy.9 mph88%29.59 "Hg5 mi
1:50 AM55 °FRain. Overcast.10 mph82%29.59 "Hg4 mi
1:20 AM57 °FOvercast.12 mph72%29.59 "HgN/A
12:50 AM55 °FOvercast.10 mph77%29.62 "HgN/A
12:20 AM55 °FOvercast.12 mph77%29.62 "HgN/A
11:50 PM
Oct 19
54 °FPassing clouds.8 mph82%29.65 "HgN/A
11:20 PM54 °FPassing clouds.9 mph77%29.65 "HgN/A
10:50 PM54 °FPassing clouds.10 mph77%29.68 "HgN/A
10:20 PM54 °FPassing clouds.9 mph82%29.68 "HgN/A
9:50 PM54 °FPassing clouds.9 mph77%29.71 "HgN/A
9:20 PM54 °FMostly cloudy.8 mph82%29.74 "HgN/A
8:50 PM54 °FMostly cloudy.7 mph82%29.74 "HgN/A
8:20 PM54 °FOvercast.7 mph77%29.77 "Hg6 mi
7:50 PM54 °FOvercast.9 mph77%29.80 "HgN/A
7:20 PM54 °FOvercast.9 mph77%29.80 "HgN/A
6:50 PM54 °FOvercast.9 mph77%29.83 "Hg6 mi
6:20 PM54 °FMostly cloudy.8 mph77%29.83 "Hg6 mi
5:50 PM54 °FMostly cloudy.9 mph77%29.86 "Hg5 mi
5:20 PM52 °FClear.9 mph82%29.86 "Hg5 mi
4:50 PM52 °FClear.10 mph82%29.86 "Hg5 mi
4:20 PM50 °FClear.8 mph82%29.89 "Hg4 mi
Weather by CustomWeather, © 2014

See weather overviewHow to use our weather pages